sat.trackr.live / text

‹ back to catalog

STARLINK-5074

NORAD 55438 · 2023-014AZ

PAYLOAD ACTIVE UNKNOWN

§ Identity

Operator
Country
US
Launch date
2023-01-31
Launch site
AFWTR
Launch vehicle
Mass (kg)
RCS (m²)

Purposes: comms

External: N2YO · Heavens-Above · Gunter

§ Orbital elements

Epoch: 2026-09-20T12:27:18.132768Z

Period
96.11 min
Inclination
69.9974°
Eccentricity
0.0003811
Mean motion
14.98329944 rev/d
Perigee alt
569.4 km
Apogee alt
574.7 km
Semi-major
6,950.2 km
B*
-2.5922e-6
RAAN
293.0485°
Arg perigee
271.3496°
Mean anomaly
88.7227°
Rev number
20,124

§ Raw data

STARLINK-50741 55438U 23014AZ  26263.51895987 -.00000124  00000+0 -25922-5 0  99992 55438  69.9974 293.0485 0003811 271.3496  88.7227 14.98329944201243

JSON: /api/v1/satellites/55438 · /tle

For live sub-satellite position, see the globe view (requires WebGL).

§ Visibility from observer

Set your observer location to see the next 7 days of passes ≥ 10°. The values pass through the URL so the page stays shareable.

No JS? Fill the form by hand. The geolocation button needs JavaScript.